Home > Weather > Mount Isa > Past weeks

Flag for Australia Past Weather in Mount Isa, Queensland, Australia — Yesterday and Last 2 Weeks

Now
63 °F

Clear.


Feels Like: 63 °F
Forecast: 43 / 78 °F
Wind: 3 mph from South

Location: Mount Isa Amo

Current Time: Jun 29, 2016 at 7:10:59 PM

Latest Report: Jun 29, 2016 at 6:30 PM


Visibility: N/A

Pressure: 30.09 "Hg

Humidity: 34%

Dew Point: 34 °F

Location of Mount IsaLocation

Past Weather in Mount Isa — Graph

°F

Mount Isa Temperature Yesterday

Maximum temperature yesterday: 68 °F (at 3:00 PM)
Minimum temperature yesterday: 46 °F (at 7:00 AM)
Average temperature yesterday: 56 °F

High & Low Weather Summary for the Past Weeks

 TemperatureHumidityPressure
High88 °F (Jun 17, 3:00 PM)100% (Jun 18, 12:03 PM)30.24 "Hg (Jun 18, 12:03 PM)
Low43 °F (Jun 20, 7:00 AM)19% (Jun 29, 3:00 PM)29.86 "Hg (Jun 23, 4:00 PM)
Average64 °F61%30.03 "Hg
* Reported Jun 14 6:00 PM — Jun 29 6:00 PM, Mount Isa, Weather by CustomWeather, © 2016

Note: Actual official high and low records may vary slightly from our data, if they occured in-between our weather recording intervals... More about our weather records

Advertising

Mount Isa Weather History for the Previous 24 Hours

Scroll right to see more
 ConditionsComfort  
Time TempWeatherWind HumidityBarometerVisibility
6:00 PM
Wed, Jun 29
72 °FClear.5 mph27%30.09 "HgN/A
5:30 PM75 °FClear.6 mph21%30.07 "HgN/A
5:00 PM77 °FSunny.6 mph19%30.07 "HgN/A
4:30 PM77 °FSunny.7 mph19%30.07 "HgN/A
4:00 PM77 °FSunny.5 mph19%30.07 "HgN/A
3:00 PM77 °FSunny.7 mph19%30.07 "HgN/A
2:00 PM75 °FSunny.7 mph21%30.09 "HgN/A
1:30 PM73 °FSunny.7 mph22%30.09 "HgN/A
1:00 PM73 °FSunny.8 mph22%30.12 "HgN/A
12:00 PM70 °FSunny.8 mph27%30.15 "HgN/A
11:30 AM68 °FSunny.10 mph26%30.18 "HgN/A
11:00 AM66 °FSunny.10 mph28%30.18 "HgN/A
10:00 AM61 °FSunny.8 mph39%30.21 "HgN/A
9:00 AM57 °FSunny.10 mph44%30.21 "HgN/A
8:00 AM52 °FSunny.6 mph54%30.18 "HgN/A
7:00 AM48 °FSunny.7 mph62%30.18 "HgN/A
6:30 AM50 °FSunny.9 mph58%30.18 "HgN/A
6:00 AM52 °FClear.9 mph54%30.18 "HgN/A
5:00 AM50 °FClear.9 mph58%30.18 "HgN/A
4:30 AM50 °FClear.10 mph54%30.18 "HgN/A
4:00 AM52 °FClear.8 mph50%30.18 "HgN/A
3:30 AM52 °FClear.7 mph54%30.18 "HgN/A
3:00 AM52 °FClear.8 mph50%30.18 "HgN/A
2:30 AM54 °FClear.9 mph47%30.18 "HgN/A
2:00 AM54 °FClear.10 mph51%30.21 "HgN/A
1:00 AM52 °FClear.5 mph58%30.21 "HgN/A
12:00 AM50 °FClear.7 mph58%30.21 "HgN/A
11:00 PM
Tue, Jun 28
52 °FClear.7 mph54%30.24 "HgN/A
10:30 PM54 °FClear.7 mph47%30.24 "HgN/A
10:00 PM54 °FClear.8 mph47%30.21 "HgN/A
9:30 PM54 °FClear.6 mph51%30.21 "HgN/A
9:00 PM54 °FClear.6 mph51%30.21 "HgN/A
8:30 PM57 °FClear.7 mph44%30.21 "HgN/A
8:00 PM57 °FClear.9 mph44%30.21 "HgN/A
7:00 PM61 °FClear.8 mph36%30.18 "HgN/A
Weather by CustomWeather, © 2016

See weather overviewHow to use our weather pages